TimeMST,TemperatureF,Dew PointF,Humidity,Sea Level PressureIn,VisibilityMPH,Wind Direction,Wind SpeedMPH,Gust SpeedMPH,PrecipitationIn,Events,Conditions,WindDirDegrees,DateUTC
12:15 AM,-2.2,-5.4,86,29.80,10.0,Calm,Calm,-,N/A,,Scattered Clouds,0,2013-12-05 07:15:00
12:35 AM,-3.6,-7.6,83,29.79,10.0,Calm,Calm,-,N/A,,Clear,0,2013-12-05 07:35:00
12:55 AM,-8.0,-11.2,86,29.77,10.0,Calm,Calm,-,N/A,,Clear,0,2013-12-05 07:55:00
1:15 AM,-5.4,-8.3,87,29.77,10.0,WSW,4.6,-,N/A,,Clear,250,2013-12-05 08:15:00
1:35 AM,-6.2,-10.1,83,29.77,10.0,ESE,3.5,-,N/A,,Clear,110,2013-12-05 08:35:00
1:55 AM,-6.7,-10.7,83,29.79,10.0,Calm,Calm,-,N/A,,Clear,0,2013-12-05 08:55:00
2:15 AM,-8.9,-13.2,81,29.79,10.0,Calm,Calm,-,N/A,,Clear,0,2013-12-05 09:15:00
2:35 AM,-7.6,-11.6,83,29.79,10.0,Calm,Calm,-,N/A,,Clear,0,2013-12-05 09:35:00
2:55 AM,-7.6,-11.0,85,29.79,10.0,Calm,Calm,-,N/A,,Clear,0,2013-12-05 09:55:00
3:15 AM,-9.2,-13.2,83,29.79,10.0,Calm,Calm,-,N/A,,Clear,0,2013-12-05 10:15:00
3:35 AM,-17.0,-22.2,77,29.79,10.0,West,5.8,-,N/A,,Clear,260,2013-12-05 10:35:00
3:55 AM,-16.8,-21.5,79,29.79,10.0,Calm,Calm,-,N/A,,Clear,0,2013-12-05 10:55:00
4:15 AM,-17.5,-22.4,79,29.80,10.0,Calm,Calm,-,N/A,,Clear,0,2013-12-05 11:15:00
4:35 AM,-20.2,-26.1,74,29.79,7.0,NW,3.5,-,N/A,,Clear,320,2013-12-05 11:35:00
4:55 AM,-19.7,-25.4,75,29.79,10.0,WNW,4.6,-,N/A,,Clear,300,2013-12-05 11:55:00
5:15 AM,-21.3,-27.0,75,29.79,10.0,WSW,5.8,-,N/A,,Clear,250,2013-12-05 12:15:00
5:35 AM,-17.0,-21.3,81,29.80,10.0,WSW,4.6,-,N/A,,Clear,250,2013-12-05 12:35:00
5:55 AM,-15.7,-20.9,77,29.80,10.0,Calm,Calm,-,N/A,,Clear,0,2013-12-05 12:55:00
6:15 AM,-18.2,-23.6,76,29.80,10.0,Calm,Calm,-,N/A,,Clear,0,2013-12-05 13:15:00
6:35 AM,-18.2,-23.6,76,29.80,7.0,Calm,Calm,-,N/A,,Scattered Clouds,0,2013-12-05 13:35:00
6:55 AM,-16.6,-21.8,77,29.81,10.0,Calm,Calm,-,N/A,,Overcast,0,2013-12-05 13:55:00
7:15 AM,-19.1,-24.7,76,29.82,10.0,NW,3.5,-,N/A,,Overcast,320,2013-12-05 14:15:00
7:35 AM,-15.9,-21.1,77,29.82,7.0,West,5.8,-,N/A,Snow,Light Snow,280,2013-12-05 14:35:00
7:55 AM,-14.4,-19.5,78,29.82,5.0,West,4.6,-,N/A,,Haze,260,2013-12-05 14:55:00
8:15 AM,-15.0,-20.4,77,29.82,5.0,WNW,6.9,-,N/A,,Haze,300,2013-12-05 15:15:00
8:35 AM,-14.3,-19.3,78,29.82,5.0,West,6.9,-,N/A,,Haze,260,2013-12-05 15:35:00
8:55 AM,-13.2,-18.0,79,29.82,10.0,West,4.6,-,N/A,,Scattered Clouds,260,2013-12-05 15:55:00
9:15 AM,-10.7,-15.5,79,29.82,10.0,West,3.5,-,N/A,,Clear,270,2013-12-05 16:15:00
9:35 AM,-9.6,-14.1,81,29.82,7.0,WSW,4.6,-,N/A,,Clear,240,2013-12-05 16:35:00
9:55 AM,-7.6,-12.3,80,29.81,7.0,Calm,Calm,-,N/A,,Clear,0,2013-12-05 16:55:00
10:15 AM,-6.3,-10.8,81,29.80,10.0,WSW,3.5,-,N/A,,Clear,250,2013-12-05 17:15:00
10:35 AM,-5.3,-9.4,82,29.79,10.0,WSW,3.5,-,N/A,,Clear,240,2013-12-05 17:35:00
10:55 AM,-3.3,-7.4,82,29.78,10.0,SW,3.5,-,N/A,,Clear,230,2013-12-05 17:55:00
11:15 AM,-1.5,-5.8,82,29.76,10.0,Calm,Calm,-,N/A,,Clear,0,2013-12-05 18:15:00
11:35 AM,-0.4,-4.9,81,29.74,10.0,Calm,Calm,-,N/A,,Clear,0,2013-12-05 18:35:00
11:55 AM,0.7,-4.2,80,29.73,10.0,Calm,Calm,-,N/A,,Clear,0,2013-12-05 18:55:00
12:15 PM,1.8,-4.9,74,29.72,10.0,Calm,Calm,-,N/A,,Clear,0,2013-12-05 19:15:00
12:35 PM,3.2,-6.0,66,29.70,10.0,Calm,Calm,-,N/A,,Clear,0,2013-12-05 19:35:00
12:55 PM,4.5,-5.8,63,29.70,10.0,Calm,Calm,-,N/A,,Clear,0,2013-12-05 19:55:00
1:15 PM,5.7,-5.8,59,29.69,10.0,WSW,4.6,-,N/A,,Clear,250,2013-12-05 20:15:00
1:35 PM,7.0,-4.9,58,29.69,10.0,Calm,Calm,-,N/A,,Clear,0,2013-12-05 20:35:00
1:55 PM,7.7,-4.9,56,29.68,10.0,Calm,Calm,-,N/A,,Clear,0,2013-12-05 20:55:00
2:15 PM,7.7,-4.0,59,29.68,10.0,Calm,Calm,-,N/A,,Clear,0,2013-12-05 21:15:00
2:35 PM,6.8,-4.0,61,29.68,10.0,WSW,3.5,-,N/A,,Clear,250,2013-12-05 21:35:00
2:55 PM,6.3,-4.0,63,29.68,10.0,WSW,4.6,-,N/A,,Clear,250,2013-12-05 21:55:00
3:15 PM,5.0,-4.7,64,29.68,10.0,WSW,5.8,-,N/A,,Clear,250,2013-12-05 22:15:00
3:35 PM,2.7,-6.7,65,29.69,10.0,WSW,6.9,-,N/A,,Clear,250,2013-12-05 22:35:00
3:55 PM,0.1,-8.1,68,29.69,10.0,WSW,6.9,-,N/A,,Clear,250,2013-12-05 22:55:00
4:15 PM,-4.2,-10.7,74,29.70,10.0,WSW,6.9,-,N/A,,Clear,240,2013-12-05 23:15:00
4:35 PM,-4.4,-10.3,76,29.70,10.0,WSW,5.8,-,N/A,,Clear,240,2013-12-05 23:35:00
4:55 PM,-3.1,-9.2,75,29.71,10.0,WSW,4.6,-,N/A,,Clear,240,2013-12-05 23:55:00
5:15 PM,-6.3,-11.4,79,29.72,10.0,West,5.8,-,N/A,,Clear,270,2013-12-06 00:15:00
5:35 PM,-2.9,-8.7,76,29.73,10.0,West,3.5,-,N/A,,Clear,270,2013-12-06 00:35:00
5:55 PM,-2.9,-7.4,81,29.73,10.0,WSW,3.5,-,N/A,,Clear,240,2013-12-06 00:55:00
6:15 PM,-2.4,-8.0,77,29.73,10.0,West,3.5,-,N/A,,Clear,260,2013-12-06 01:15:00
6:35 PM,-6.0,-11.7,76,29.74,10.0,NW,6.9,-,N/A,,Clear,310,2013-12-06 01:35:00
6:55 PM,-4.5,-8.7,82,29.74,10.0,West,4.6,-,N/A,,Clear,280,2013-12-06 01:55:00
7:15 PM,-4.4,-9.4,79,29.74,10.0,Calm,Calm,-,N/A,,Clear,0,2013-12-06 02:15:00
7:35 PM,-3.5,-7.8,82,29.75,10.0,Calm,Calm,-,N/A,,Clear,0,2013-12-06 02:35:00
7:55 PM,-4.9,-8.9,83,29.76,10.0,Calm,Calm,-,N/A,,Clear,0,2013-12-06 02:55:00
8:15 PM,-6.7,-11.4,80,29.76,10.0,SW,4.6,-,N/A,,Clear,230,2013-12-06 03:15:00
8:35 PM,-11.2,-15.7,80,29.77,10.0,West,3.5,-,N/A,,Clear,260,2013-12-06 03:35:00
8:55 PM,-10.8,-14.1,86,29.77,7.0,Calm,Calm,-,N/A,,Clear,0,2013-12-06 03:55:00
9:15 PM,-11.2,-15.5,81,29.78,10.0,Calm,Calm,-,N/A,,Clear,0,2013-12-06 04:15:00
9:35 PM,-11.7,-15.7,83,29.79,10.0,WNW,4.6,-,N/A,,Scattered Clouds,290,2013-12-06 04:35:00
9:55 PM,-6.9,-10.5,84,29.80,10.0,Calm,Calm,-,N/A,,Scattered Clouds,0,2013-12-06 04:55:00
10:15 PM,-10.7,-14.8,82,29.80,7.0,Calm,Calm,-,N/A,,Mostly Cloudy,0,2013-12-06 05:15:00
10:35 PM,-9.9,-14.3,81,29.80,7.0,Calm,Calm,-,N/A,,Overcast,0,2013-12-06 05:35:00
10:55 PM,-8.7,-12.8,82,29.80,7.0,Calm,Calm,-,N/A,,Overcast,0,2013-12-06 05:55:00
11:15 PM,-6.7,-10.7,83,29.80,10.0,NW,3.5,-,N/A,,Overcast,310,2013-12-06 06:15:00
11:35 PM,-4.4,-8.3,83,29.80,10.0,Calm,Calm,-,N/A,,Overcast,0,2013-12-06 06:35:00